NOAA 16 DEB, 41089

Orbit data source: Space-Track

NOAA 16 DEB, 41089 is space debris in SSO originally from a launch on Thu, 21 Sep 2000 UTC launched from the Air Force Western Test Range (AFWTR). Debris objects in space refer to the collection of defunct objects orbiting the Earth. Examples of debris include non-operational satellites, rocket bodies, and fragments generated from explosions, collisions, or faulty payload assembly.

Loading next visibility...
Identifier
41089, 2000-055AY
Orbit
SSO
Country
Flag of USUS
Related business
Manufacturer
Unknown
Mission
Spacecraft
Bus & Motor
Unknown
Mass
Unknown
Launch date (UTC)
2000-09-21 (26 years ago)
Launch vehicle
Unknown
Launch site
Air Force Western Test Range (AFWTR)
Object type
Payload
Rocket body
Debris
Shape & HBR
Unknown shape, 0.1 m
Radar Cross Section
Medium (>0.1 m² and <1 m²)

Expand to show TLE details & history
Last TLE update: 4 days ago

TLE from 4 days ago
0 NOAA 16 DEB
1 41089U 00055AY  26169.46438166  .00003584  00000-0  12868-2 0  9991
2 41089  98.6862 252.3862 0008843 131.0886 229.1063 14.34467394545801
Epoch: 2026-06-18T11:08Z
TLE epoch observation values (Epoch: 2026-06-18T11:08:42.575Z)
Latitude
-0.00008°
Longitude
178.50148°
Altitude
783.918 km
Speed
7.46 km/s
True Right ascension
16h 49m 32s
True Declination
0° 00' 00"
Sunlit
Object was in full shadow at epoch
Visualization orbit readout
Latitude
Unknown
Longitude
Unknown
Altitude
Unknown
Speed
Unknown
Apparent Right ascension
Unknown
Apparent Declination
Unknown
Sunlit
N/A
Visualization observer readout
Local Sidereal Time
21:56:21
Azimuth
Unknown
Elevation
Unknown
Doppler factor
Unknown
Orbital elements
Apogee altitude
780.3 km
Perigee altitude
767.65 km
Semi-major axis
7,152.112 km
Eccentricity
0.00088
Inclination
98.6862°
RAAN
252.3862°
Arg. of periapsis
131.0886°
True anomaly
229.02975°
Mean anomaly
229.1063°
Eccentric anomaly
229.06802°
Mean motion
3.58832 °/min
Orbital period
100.33 mins
BSTAR
0.0012868
Loading maneuver chart data...
Computing Atmospheric mass density...
Loading historical data...
Loading historical data...
Loading historical data...
Loading historical data...
Loading historical data...
Loading historical data...
Loading historical data...

Documentation

Showing up to 5 results
|